User: anonymous   Login
Location: Nairn
(57.5833°N, 3.8667°W)
Time: 06:46:40
(UTC+00:00)
Language:

A-11 Canister half - Orbit

View from above orbital plane
View from above orbital plane
View from above satellite
View from above satellite

Ground track
Ground track

The orbit data is extracted from the following two-line orbital elements,

1    51U 60009C   20331.97000057 -.00000053 +00000-0 +30483-3 0  9998
2    51 047.2109 204.6340 0105498 287.4614 071.4665 12.18272230683902
Epoch (UTC): 26 November 2020 23:16:48
Eccentricity: 0.0105498
inclination: 47.2109°
perigee height: 1516 km
apogee height: 1684 km
right ascension of ascending node: 204.6340°
argument of perigee: 287.4614°
revolutions per day: 12.18272230
mean anomaly at epoch: 71.4665°
orbit number at epoch: 68390

The dashed part of the orbit path shows where the satellite is in the earth's shadow,  

DLR